sat.trackr.live / text

‹ back to catalog

GLOBALSTAR M066

NORAD 32265 · 2007-048C

PAYLOAD ACTIVE UNKNOWN

§ Identity

Operator
Country
GLOB
Launch date
2007-10-20
Launch site
TYMSC
Launch vehicle
Mass (kg)
RCS (m²)
1.94

Purposes: comms

External: N2YO · Heavens-Above · Gunter

§ Orbital elements

Epoch: 2026-09-19T09:59:59.791200Z

Period
117.04 min
Inclination
51.9581°
Eccentricity
0.0004012
Mean motion
12.30390833 rev/d
Perigee alt
1,544.4 km
Apogee alt
1,550.8 km
Semi-major
7,925.7 km
B*
6.1494e-5
RAAN
147.4064°
Arg perigee
237.7571°
Mean anomaly
293.4453°
Rev number
87,182

§ Raw data

GLOBALSTAR M0661 32265U 07048C   26262.41666425 -.00000087  00000+0  61494-4 0  99922 32265  51.9581 147.4064 0004012 237.7571 293.4453 12.30390833871822

JSON: /api/v1/satellites/32265 · /tle

For live sub-satellite position, see the globe view (requires WebGL).

§ Visibility from observer

Set your observer location to see the next 7 days of passes ≥ 10°. The values pass through the URL so the page stays shareable.

No JS? Fill the form by hand. The geolocation button needs JavaScript.